Location: Chester
(43.2628°N, 72.5951°W)
Time: 02:01:47
(UTC-04:00)

ISS - Visible Passes

Search period start: 22 June 2024 00:00
Search period end: 02 July 2024 00:00
Orbit: 410 x 425 km, 51.6° (Epoch: 21 June)

Date Brightness Start Highest point End Pass type
(mag) Time Alt. Az. Time Alt. Az. Time Alt. Az.
23 Jun -2.5 04:00:02 14° SSW 04:02:24 31° SE 04:05:24 10° ENE visible
24 Jun -1.9 03:13:46 18° SSE 03:14:28 19° SE 03:16:54 10° E visible
25 Jun -1.0 02:27:25 10° ESE 02:27:25 10° ESE 02:27:38 10° ESE visible
25 Jun -3.8 04:00:20 17° SW 04:02:49 86° SSE 04:06:10 10° ENE visible
26 Jun -3.4 03:13:54 39° S 03:14:43 51° SE 03:17:59 10° ENE visible
27 Jun -2.3 02:27:24 27° ESE 02:27:24 27° ESE 02:29:37 10° ENE visible
27 Jun -2.8 04:00:17 11° W 04:03:20 41° NNW 04:06:33 10° NE visible
28 Jun -0.9 01:40:49 11° E 01:40:49 11° E 01:40:58 10° E visible
28 Jun -3.5 03:13:42 31° W 03:15:04 62° NNW 03:18:24 10° NE visible
29 Jun -3.8 02:27:03 75° E 02:27:03 75° E 02:30:10 10° ENE visible
29 Jun -1.8 04:01:04 10° WNW 04:03:53 25° NNW 04:06:44 10° NE visible
30 Jun -1.9 01:40:19 23° ENE 01:40:19 23° ENE 01:41:50 10° ENE visible
30 Jun -2.2 03:13:11 15° WNW 03:15:28 31° NNW 03:18:31 10° NE visible
01 Jul -2.8 02:26:23 37° WNW 02:27:04 43° NNW 02:30:16 10° NE visible
01 Jul -1.2 04:01:54 10° NW 04:04:25 20° N 04:06:58 10° NE visible
